Cody, WY

8:12 PM MDT on March 24, 2017 (GMT -0600)
Yellowstone Regional

Weather History for KCOD - July, 2013

Change the Weather History Date:

Monday, July 1, 2013

  Actual Average Record
Temperature  
Mean Temperature 75 °F -  
Max Temperature 84 °F 80 °F 96 °F (2012)
Min Temperature 66 °F 51 °F 33 °F (1945)
Cooling Degree Days 10    
Growing Degree Days 25 (Base 50)    
Moisture  
Dew Point 53 °F    
Average Humidity 46    
Maximum Humidity 64    
Minimum Humidity 32    
Precipitation  
Precipitation 0.00 in - - ()
Sea Level Pressure  
Sea Level Pressure 30.27 in    
Wind  
Wind Speed 7 mph (North)    
Max Wind Speed 18 mph    
Max Gust Speed 23 mph    
Visibility 10 miles    
Events      
Averages and records for this station are not official NWS values.
T = Trace of Precipitation, MM = Missing Value Source: NWS Daily Summary

Daily Weather History Graph

Daily Weather History Graph

Search for Another Location

Airport or City:

Trip Planner

Search our weather history database for the weather conditions in past years. The results will help you decide how hot, cold, wet, or windy it might be!

Date:

Astronomy

Jul. 01, 2013 Rise Set
Actual Time 5:35 AM MDT 9:04 PM MDT
Civil Twilight 4:58 AM MDT 9:41 PM MDT
Nautical Twilight 4:10 AM MDT 10:29 PM MDT
Astronomical Twilight 3:08 AM MDT 11:30 PM MDT
Moon 1:16 AM MDT (7/1) 3:15 PM MDT (7/1)
Length of Visible Light 16h 42m
Length of Day
15h 29m
Waning Crescent, 35% of the Moon is Illuminated
Jul 1
Waning Crescent
Jul 8
New
Jul 15
First Quarter
Jul 22
Full
Jul 29
Last Quarter

Hourly Weather History & Observations

Time (MDT) Temp. Heat Index Dew Point Humidity Pressure Visibility Wind Dir Wind Speed Gust Speed Precip Events Conditions
12:15 AM 71.6 °F - 51.8 °F 50% 30.26 in 10.0 mi WNW 4.6 mph - N/A   Clear
12:35 AM 71.6 °F - 53.6 °F 53% 30.26 in 10.0 mi NW 3.5 mph - N/A   Clear
12:55 AM 71.6 °F - 53.6 °F 53% 30.26 in 10.0 mi WNW 3.5 mph - N/A   Clear
1:15 AM 69.8 °F - 53.6 °F 56% 30.26 in 10.0 mi SW 4.6 mph - N/A   Clear
1:35 AM 69.8 °F - 53.6 °F 56% 30.26 in 10.0 mi SSW 4.6 mph - N/A   Clear
1:55 AM 68.0 °F - 51.8 °F 56% 30.26 in 10.0 mi SSW 4.6 mph - N/A   Partly Cloudy
2:15 AM 68.0 °F - 53.6 °F 60% 30.27 in 10.0 mi SW 4.6 mph - N/A   Mostly Cloudy
2:35 AM 66.2 °F - 53.6 °F 64% 30.26 in 10.0 mi SW 5.8 mph - N/A   Mostly Cloudy
3:15 AM 68.0 °F - 53.6 °F 60% 30.26 in 10.0 mi SW 6.9 mph - N/A   Mostly Cloudy
3:55 AM 66.2 °F - 53.6 °F 64% 30.26 in 10.0 mi SW 8.1 mph - N/A   Scattered Clouds
4:15 AM 66.2 °F - 53.6 °F 64% 30.26 in 10.0 mi SW 3.5 mph - N/A   Partly Cloudy
4:55 AM 66.2 °F - 51.8 °F 60% 30.27 in 10.0 mi SW 8.1 mph - N/A   Clear
5:15 AM 66.2 °F - 51.8 °F 60% 30.27 in 10.0 mi WSW 5.8 mph - N/A   Partly Cloudy
5:35 AM 66.2 °F - 51.8 °F 60% 30.27 in 10.0 mi SW 6.9 mph - N/A   Partly Cloudy
5:55 AM 66.2 °F - 51.8 °F 60% 30.28 in 10.0 mi SW 5.8 mph - N/A   Partly Cloudy
6:15 AM 66.2 °F - 51.8 °F 60% 30.28 in 10.0 mi SW 8.1 mph - N/A   Partly Cloudy
6:35 AM 66.2 °F - 51.8 °F 60% 30.28 in 10.0 mi SW 5.8 mph - N/A   Partly Cloudy
6:55 AM 68.0 °F - 51.8 °F 56% 30.29 in 10.0 mi SW 4.6 mph - N/A   Clear
7:15 AM 69.8 °F - 51.8 °F 53% 30.29 in 10.0 mi SW 4.6 mph - N/A   Clear
7:35 AM 71.6 °F - 53.6 °F 53% 30.29 in 10.0 mi Calm Calm - N/A   Clear
8:35 AM 73.4 °F - 57.2 °F 57% 30.30 in 10.0 mi NE 3.5 mph - N/A   Clear
8:55 AM 73.4 °F - 57.2 °F 57% 30.30 in 10.0 mi NNE 6.9 mph - N/A   Clear
9:15 AM 73.4 °F - 57.2 °F 57% 30.30 in 10.0 mi NNE 5.8 mph - N/A   Clear
9:35 AM 75.2 °F - 55.4 °F 50% 30.30 in 10.0 mi NNE 4.6 mph - N/A   Clear
9:55 AM 75.2 °F - 57.2 °F 53% 30.30 in 10.0 mi NNE 6.9 mph - N/A   Clear
10:15 AM 75.2 °F - 55.4 °F 50% 30.30 in 10.0 mi NE 9.2 mph - N/A   Clear
10:35 AM 77.0 °F - 55.4 °F 47% 30.30 in 10.0 mi NNE 9.2 mph - N/A   Clear
10:55 AM 78.8 °F - 55.4 °F 44% 30.30 in 10.0 mi NE 8.1 mph - N/A   Clear
11:15 AM 78.8 °F - 55.4 °F 44% 30.29 in 10.0 mi NE 11.5 mph - N/A   Clear
11:35 AM 80.6 °F 80.5 °F 55.4 °F 42% 30.29 in 10.0 mi NE 11.5 mph - N/A   Clear
11:55 AM 80.6 °F 80.5 °F 55.4 °F 42% 30.29 in 10.0 mi NNE 11.5 mph - N/A   Clear
12:15 PM 80.6 °F 80.8 °F 57.2 °F 45% 30.28 in 10.0 mi NE 11.5 mph - N/A   Clear
12:35 PM 80.6 °F 80.8 °F 57.2 °F 45% 30.28 in 10.0 mi NNE 10.4 mph 17.3 mph N/A   Clear
12:55 PM 82.4 °F 81.7 °F 55.4 °F 39% 30.28 in 10.0 mi NE 11.5 mph 17.3 mph N/A   Clear
1:15 PM 82.4 °F 81.4 °F 53.6 °F 37% 30.28 in 10.0 mi NE 10.4 mph - N/A   Clear
1:35 PM 82.4 °F 81.4 °F 53.6 °F 37% 30.28 in 10.0 mi NNE 11.5 mph 17.3 mph N/A   Clear
1:55 PM 82.4 °F 81.4 °F 53.6 °F 37% 30.27 in 10.0 mi North 9.2 mph - N/A   Clear
2:15 PM 84.2 °F 82.8 °F 53.6 °F 35% 30.27 in 10.0 mi NE 12.7 mph 17.3 mph N/A   Clear
2:35 PM 84.2 °F 83.0 °F 55.4 °F 37% 30.27 in 10.0 mi NNE 11.5 mph 19.6 mph N/A   Clear
2:55 PM 84.2 °F 83.0 °F 55.4 °F 37% 30.26 in 10.0 mi NE 12.7 mph 17.3 mph N/A   Clear
3:15 PM 84.2 °F 82.8 °F 53.6 °F 35% 30.26 in 10.0 mi NE 12.7 mph 21.9 mph N/A   Clear
3:35 PM 82.4 °F 81.7 °F 55.4 °F 39% 30.25 in 10.0 mi NE 11.5 mph 23.0 mph N/A   Clear
3:55 PM 84.2 °F 82.8 °F 53.6 °F 35% 30.25 in 10.0 mi North 12.7 mph 19.6 mph N/A   Clear
4:15 PM 82.4 °F 81.7 °F 55.4 °F 39% 30.25 in 10.0 mi North 15.0 mph 19.6 mph N/A   Clear
4:35 PM 82.4 °F 81.4 °F 53.6 °F 37% 30.25 in 10.0 mi North 13.8 mph 19.6 mph N/A   Clear
4:55 PM 82.4 °F 81.4 °F 53.6 °F 37% 30.25 in 10.0 mi North 15.0 mph 19.6 mph N/A   Clear
5:35 PM 82.4 °F 81.4 °F 53.6 °F 37% 30.25 in 10.0 mi North 18.4 mph 23.0 mph N/A   Clear
5:55 PM 82.4 °F - 51.8 °F 35% 30.24 in 10.0 mi North 15.0 mph 21.9 mph N/A   Clear
6:15 PM 80.6 °F - 48.2 °F 32% 30.24 in 10.0 mi NNE 18.4 mph 23.0 mph N/A   Clear
6:35 PM 80.6 °F - 51.8 °F 37% 30.24 in 10.0 mi North 17.3 mph - N/A   Clear
6:55 PM 80.6 °F - 51.8 °F 37% 30.24 in 10.0 mi North 17.3 mph 20.7 mph N/A   Clear
7:15 PM 78.8 °F - 50.0 °F 36% 30.25 in 10.0 mi North 15.0 mph 19.6 mph N/A   Clear
7:35 PM 78.8 °F - 50.0 °F 36% 30.25 in 10.0 mi North 12.7 mph - N/A   Scattered Clouds
7:55 PM 78.8 °F - 48.2 °F 34% 30.26 in 10.0 mi North 10.4 mph 17.3 mph N/A   Mostly Cloudy
8:15 PM 78.8 °F - 48.2 °F 34% 30.26 in 10.0 mi NNE 6.9 mph - N/A   Mostly Cloudy
8:35 PM 78.8 °F - 48.2 °F 34% 30.25 in 10.0 mi North 9.2 mph - N/A   Overcast
8:55 PM 77.0 °F - 48.2 °F 36% 30.26 in 10.0 mi North 9.2 mph - N/A   Mostly Cloudy
9:15 PM 75.2 °F - 48.2 °F 38% 30.26 in 10.0 mi North 8.1 mph - N/A   Partly Cloudy
9:35 PM 75.2 °F - 48.2 °F 38% 30.27 in 10.0 mi North 5.8 mph - N/A   Clear
9:55 PM 73.4 °F - 48.2 °F 41% 30.27 in 10.0 mi North 6.9 mph - N/A   Partly Cloudy
10:15 PM 73.4 °F - 48.2 °F 41% 30.28 in 10.0 mi North 3.5 mph - N/A   Clear
10:35 PM 73.4 °F - 46.4 °F 38% 30.28 in 10.0 mi Calm Calm - N/A   Clear
11:15 PM 71.6 °F - 46.4 °F 41% 30.28 in 10.0 mi NNW 3.5 mph - N/A   Clear
11:35 PM 71.6 °F - 44.6 °F 38% 30.28 in 10.0 mi WNW 4.6 mph - N/A   Clear
11:55 PM 71.6 °F - 44.6 °F 38% 30.28 in 10.0 mi Calm Calm - N/A   Clear